SL-14 DEB, 45280

Orbit data source: Space-Track

SL-14 DEB, 45280 is space debris in LEO originally from a launch on Thu, 15 Aug 1991 UTC launched from the Plesetsk Missile And Space Complex (PKMTR). Debris objects in space refer to the collection of defunct objects orbiting the Earth. Examples of debris include non-operational satellites, rocket bodies, and fragments generated from explosions, collisions, or faulty payload assembly.

Loading next visibility...
Identifier
45280, 1991-056S
Orbit
LEO
Country
Flag of CISCIS
Related business
Manufacturer
Unknown
Mission
Spacecraft
Bus & Motor
Unknown
Mass
Unknown
Launch date (UTC)
1991-08-15 (35 years ago)
Launch vehicle
Unknown
Launch site
Plesetsk Missile And Space Complex (PKMTR)
Object type
Payload
Rocket body
Debris
Shape & HBR
Unknown shape, 0.1 m
Radar Cross Section
Medium (>0.1 m² and <1 m²)

Expand to show TLE details & history
Last TLE update: 3 days ago

TLE from 3 days ago
0 SL-14 DEB
1 45280U 91056S   26155.02853463  .00001296  00000-0  31015-2 0  9990
2 45280  82.5874 152.8184 0021710  23.6151 336.5966 13.21887441303376
Epoch: 2026-06-04T00:41Z
TLE epoch observation values (Epoch: 2026-06-04T00:41:05.392Z)
Latitude
0.00002°
Longitude
-109.93274°
Altitude
1,165.283 km
Speed
7.278 km/s
True Right ascension
10h 11m 16s
True Declination
0° 00' 00"
Sunlit
Object was in daylight at epoch
Visualization orbit readout
Latitude
Unknown
Longitude
Unknown
Altitude
Unknown
Speed
Unknown
Apparent Right ascension
Unknown
Apparent Declination
Unknown
Sunlit
N/A
Visualization observer readout
Local Sidereal Time
02:39:13
Azimuth
Unknown
Elevation
Unknown
Doppler factor
Unknown
Orbital elements
Apogee altitude
1,191.153 km
Perigee altitude
1,158.358 km
Semi-major axis
7,552.893 km
Eccentricity
0.00217
Inclination
82.5874°
RAAN
152.8184°
Arg. of periapsis
23.6151°
True anomaly
336.49754°
Mean anomaly
336.5966°
Eccentric anomaly
336.54709°
Mean motion
3.30654 °/min
Orbital period
108.88 mins
BSTAR
0.0031015
Loading maneuver chart data...
Computing Atmospheric mass density...
Loading historical data...
Loading historical data...
Loading historical data...
Loading historical data...
Loading historical data...
Loading historical data...
Loading historical data...

Documentation

Showing up to 5 results
|